Weather History for CWRN - September, 2012

Change the Weather History Date:

Saturday, September 1, 2012

  Actual Average Record
Temperature  
Mean Temperature 61 °F -  
Max Temperature 66 °F - - ()
Min Temperature 56 °F - - ()
Degree Days  
Heating Degree Days 4    
Growing Degree Days 11 (Base 50)    
Moisture  
Dew Point 54 °F    
Average Humidity 75    
Maximum Humidity 94    
Minimum Humidity 56    
Precipitation  
Precipitation 0.00 in - - ()
Sea Level Pressure  
Sea Level Pressure 29.84 in    
Wind  
Wind Speed 16 mph ()    
Max Wind Speed 28 mph    
Max Gust Speed 33 mph    
T = Trace of Precipitation, MM = Missing Value Source: Averaged Metar Reports

Daily Weather History Graph

Daily Weather History Graph

Search for Another Location

Airport or City:

Trip Planner

Search our weather history database for the weather conditions in past years. The results will help you decide how hot, cold, wet, or windy it might be!

Date:

Astronomy

Sep. 01, 2012 Rise Set
Actual Time 6:26 AM ADT 7:40 PM ADT
Civil Twilight 5:55 AM ADT 8:11 PM ADT
Nautical Twilight 5:18 AM ADT 8:47 PM ADT
Astronomical Twilight 4:39 AM ADT 9:26 PM ADT
Moon 7:47 PM ADT (9/1) 7:34 AM ADT (9/1)
Length of Visible Light 14h 15m
Length of Day
13h 14m
Full, 99% of the Moon is Illuminated
Sep 1
Full
Sep 8
Last Quarter
Sep 15
New
Sep 22
First Quarter
Sep 30
Full

Hourly Weather History & Observations

Time (ADT) Temp. Dew Point Humidity Pressure Visibility Wind Dir Wind Speed Gust Speed Precip Events Conditions
12:00 AM 61.2 °F 58.8 °F 92% 29.62 in - SW 16.1 mph - N/A   Unknown
1:00 AM 59.9 °F 58.1 °F 94% 29.62 in - SW 12.7 mph - N/A   Unknown
2:00 AM 60.6 °F 58.5 °F 93% 29.63 in - WSW 9.2 mph - N/A   Unknown
3:00 AM 66 °F 60 °F 74% 29.64 in - West 15.0 mph - -  
3:00 AM 65.7 °F 59.7 °F 81% 29.64 in - West 15.0 mph - N/A   Unknown
4:00 AM 64.2 °F 58.5 °F 82% 29.66 in - West 11.5 mph - N/A   Unknown
5:00 AM 63.3 °F 59.0 °F 86% 29.67 in - West 13.8 mph - N/A   Unknown
6:00 AM 62.2 °F 59.2 °F 90% 29.70 in - West 8.1 mph - N/A   Unknown
7:00 AM 62.1 °F 57.9 °F 86% 29.73 in - West 15.0 mph - N/A   Unknown
8:00 AM 62.4 °F 57.0 °F 82% 29.76 in - WNW 18.4 mph - N/A   Unknown
9:00 AM 62 °F 56 °F 75% 29.78 in - NW 25.3 mph - -  
9:00 AM 62.2 °F 56.1 °F 80% 29.78 in - NW 25.3 mph - N/A   Unknown
10:00 AM 62.4 °F 54.5 °F 75% 29.81 in - NW 26.5 mph - N/A   Unknown
11:00 AM 61.2 °F 54.5 °F 79% 29.84 in - NW 23.0 mph - N/A   Unknown
12:00 PM 60.1 °F 54.9 °F 83% 29.85 in - NW 24.2 mph - N/A   Unknown
1:00 PM 62.8 °F 54.7 °F 75% 29.87 in - NW 26.5 mph - N/A   Unknown
2:00 PM 63.0 °F 52.3 °F 68% 29.89 in - NW 24.2 mph 28.8 mph N/A   Unknown
3:00 PM 63 °F 51 °F 56% 29.91 in - NNW 25.3 mph - -  
3:00 PM 62.8 °F 51.3 °F 66% 29.91 in - NNW 25.3 mph 33.4 mph N/A   Unknown
4:00 PM 62.1 °F 50.5 °F 66% 29.92 in - NW 24.2 mph - N/A   Unknown
5:00 PM 61.2 °F 50.9 °F 69% 29.95 in - NW 23.0 mph - N/A   Unknown
6:00 PM 59.9 °F 46.0 °F 60% 29.96 in - NW 27.6 mph 33.4 mph N/A   Unknown
7:00 PM 58.8 °F 45.5 °F 61% 30.00 in - North 25.3 mph - N/A   Unknown
8:00 PM 58.5 °F 46.9 °F 66% 30.02 in - NNW 20.7 mph - N/A   Unknown
9:00 PM 57 °F 47 °F 60% 30.06 in - NW 17.3 mph - -  
9:00 PM 56.7 °F 46.9 °F 70% 30.06 in - NW 17.3 mph - N/A   Unknown
10:00 PM 56.5 °F 48.0 °F 73% 30.07 in - NW 13.8 mph - N/A   Unknown
11:00 PM 56.7 °F 47.3 °F 71% 30.09 in - North 10.4 mph - N/A   Unknown